Location: *
(52.2090°N, 4.1550°W)
Time: 00:25:49
(UTC+00:00)

SPOT 5 - Pass Details

Date: 19 July 2019
Orbit: 623 x 815 km, 98.3° (Epoch: 24 August)

Event Time Altitude Azimuth Distance (km) Brightness Sun altitude
Exits shadow 21:24:17 - 153° (SSE) 2,449 5.0 -7.3°
Reaches altitude 10° 21:24:42 10° 152° (SSE) 2,286 4.8 -7.3°
Maximum altitude 21:29:41 67° 71° (ENE) 797 3.0 -7.8°
Drops below altitude 10° 21:34:25 10° 350° (N) 2,179 6.4 -8.3°
Sets 21:36:38 0° 348° (NNW) 3,071 7.4 -8.5°
